Simultaneous Nadir Overpasses (SNOs) Predictions

Prediction of SNOs between GOES-17 and METOP-C Satellite Orbit:

Table of predicted SNOs for the next 14.0 days since TLE Epoch: 2/28/2020
Index Date Time (GOES-17) GOES-17 Lat,Lon METOP-C Lat,Lon Distance(km) Time Diff (sec)
1 02/29/2020 06:28:50 0.00,-137.22 0.57,-134.80 276.43 80
2 03/01/2020 18:47:44 -0.01,-137.22 0.44,-139.36 243.21 80
3 03/02/2020 18:29:44 -0.01,-137.22 -0.64,-134.36 325.60 80
4 03/04/2020 06:46:05 0.01,-137.21 -0.39,-138.95 199.29 80
5 03/05/2020 06:28:06 0.01,-137.20 0.75,-133.97 368.97 80
6 03/06/2020 18:44:18 -0.01,-137.19 0.32,-138.52 152.22 80
7 03/07/2020 18:26:20 -0.01,-137.18 -0.82,-133.53 415.79 80
8 03/09/2020 06:42:40 0.00,-137.16 -0.20,-138.13 110.05 80
9 03/10/2020 06:24:41 -0.00,-137.14 0.89,-133.12 457.61 80
10 03/11/2020 18:40:54 0.00,-137.12 0.13,-137.69 64.51 80




NCC Satellite Simultaneous Nadir Overpasses (SNOs) Prediction Service
